User: anonymous   Login
Location: Unspecified
(0.0000°N, 0.0000°E)
Time: 09:59:22
(UTC+00:00)
Language:

Tiros 1 - Orbit

View from above orbital plane
View from above orbital plane
View from above satellite
View from above satellite

Ground track
Ground track

The orbit data is extracted from the following two-line orbital elements,

1    29U 60002B   18053.30364880 -.00000123 +00000-0 +12660-4 0  9994
2    29 048.3811 341.4801 0024299 214.0676 145.8677 14.74228273093696
Epoch (UTC): 22 February 2018 07:17:15
Eccentricity: 0.0024299
inclination: 48.3811°
perigee height: 630 km
apogee height: 664 km
right ascension of ascending node: 341.4801°
argument of perigee: 214.0676°
revolutions per day: 14.74228273
mean anomaly at epoch: 145.8677°
orbit number at epoch: 9369

The dashed part of the orbit path shows where the satellite is in the earth's shadow,  

DLR